STARLINK-36490, 67305

Orbit data source: Space-Track

STARLINK-36490, 67305 is a payload satellite owned by SpaceX/Seattle (US) in LEO that was launched on Sun, 04 Jan 2026 UTC via an FALCON 9 launch vehicle from the Air Force Eastern Test Range (AFETR). Payload-class satellites include a variety of spacecraft equipped with specific instruments for various scientific and technological missions. These include communications satellites like Starlink; space stations such as the ISS; scientific satellites like the Hubble; Earth observation satellites from companies like Planet Labs, Umbra, and HawkEye 360; GPS; miniature CubeSats for education and research; and military/defense satellites.

Loading next visibility...
Identifier
67305, 2026-002A
Orbit
LEO
Country
Flag of USUS
Related business
Manufacturer
SpaceX/Seattle
Mission
Operational spacecraft
Bus & Motor
STARLINK V2MO, Unknown motor
Mass
575 kg wet, ~530 kg dry
Launch date (UTC)
2026-01-04 (2 weeks ago)
Launch vehicle
FALCON 9
Launch site
Air Force Eastern Test Range (AFETR)
Object type
Payload
Rocket body
Debris
Shape & HBR
Unknown shape, 17.7 m
Radar Cross Section
RCS unknown

Expand to show TLE details & history
Last TLE update: 12 hours ago

TLE from 12 hours ago
0 STARLINK-36490
1 67305U 26002A   26014.25002315 -.01146455  00000-0 -40387-2 0  9994
2 67305  42.9978 280.5037 0001974 276.2442 105.3073 15.90706579  2724
Epoch: 2026-01-14T06:00Z
TLE epoch observation values (Epoch: 2026-01-14T06:00:02.000Z)
Latitude
14.5536°
Longitude
92.84695°
Altitude
299.689 km
Speed
7.731 km/s
True Right ascension
19h 46m 18s
True Declination
14° 27' 52"
Sunlit
Object was in daylight at epoch
Visualization orbit readout
Latitude
Unknown
Longitude
Unknown
Altitude
Unknown
Speed
Unknown
Apparent Right ascension
Unknown
Apparent Declination
Unknown
Sunlit
N/A
Visualization observer readout
Local Sidereal Time
18:24:45
Azimuth
Unknown
Elevation
Unknown
Doppler factor
Unknown
Orbital elements
Apogee altitude
303.622 km
Perigee altitude
300.984 km
Semi-major axis
6,680.44 km
Eccentricity
0.0002
Inclination
42.9978°
RAAN
280.5037°
Arg. of periapsis
276.2442°
True anomaly
105.32912°
Mean anomaly
105.3073°
Eccentric anomaly
105.31821°
Mean motion
3.97499 °/min
Orbital period
90.57 mins
BSTAR
-0.0040387
Loading maneuver chart data...
Computing Atmospheric mass density...
Loading historical data...
Loading historical data...
Loading historical data...
Loading historical data...
Loading historical data...
Loading historical data...
Loading historical data...

Documentation

Showing up to 5 results
|